GW4172 Weather Reports


Display with metric or nautical units.
time (UTC)temp
F
wind
direction
speed
MPH
gust
MPH
rain 1hr
in
rain 24hr
in
rain mn
in
humidity
%
barometer
mb
20260906183127 71 177 3.0 3.0 0.00 0.00 0.00 79 1022.4
20260906182621 71 266 2.0 3.0 0.00 0.00 0.00 78 1022.4
20260906182118 72 128 4.0 5.0 0.00 0.00 0.00 78 1022.6
20260906181618 72 115 3.0 3.0 0.00 0.00 0.00 79 1022.4
20260906181113 72 196 3.0 3.0 0.00 0.00 0.00 80 1022.6
20260906180609 72 80 1.0 1.0 0.00 0.00 0.00 78 1022.3
20260906180108 72 217 1.0 1.0 0.00 0.00 0.00 77 1022.7
20260906175608 71 156 4.0 5.0 0.00 0.00 0.00 79 1022.4
20260906175103 72 156 5.0 6.0 0.00 0.00 0.00 78 1022.5
20260906174600 72 157 3.0 5.0 0.00 0.00 0.00 77 1022.5
20260906174055 73 131 3.0 3.0 0.00 0.00 0.00 77 1022.5
20260906173549 71 193 2.0 3.0 0.00 0.00 0.00 80 1022.6
20260906173046 74 328 1.0 2.0 0.00 0.00 0.00 74 1022.8
20260906172540 73 134 3.0 3.0 0.00 0.00 0.00 75 1022.5
20260906172035 74 144 2.0 3.0 0.00 0.00 0.00 74 1022.7
20260906171530 73 195 3.0 3.0 0.00 0.00 0.00 76 1022.7
20260906171026 72 322 0.0 0.0 0.00 0.00 0.00 77 1022.8
20260906170521 70 182 3.0 3.0 0.00 0.00 0.00 81 1022.8
20260906170020 72 173 1.0 2.0 0.00 0.00 0.00 78 1023.1
20260906165517 71 37 1.0 1.0 0.00 0.00 0.00 80 1022.8
20260906165013 72 185 0.0 1.0 0.00 0.00 0.00 78 1022.9
20260906164512 71 179 4.0 5.0 0.00 0.00 0.00 79 1023.1
20260906164008 71 47 3.0 3.0 0.00 0.00 0.00 80 1022.8
20260906163503 70 151 3.0 5.0 0.00 0.00 0.00 79 1023.0
20260906163002 71 150 5.0 5.0 0.00 0.00 0.00 79 1023.0
20260906162500 71 118 4.0 5.0 0.00 0.00 0.00 76 1022.9
20260906161950 71 144 3.0 3.0 0.00 0.00 0.00 76 1022.9
20260906161449 72 130 0.0 1.0 0.00 0.00 0.00 75 1022.7
20260906160949 71 184 2.0 2.0 0.00 0.00 0.00 78 1022.5
20260906160442 72 182 2.0 2.0 0.00 0.00 0.00 76 1022.9
20260906155941 71 192 4.0 5.0 0.00 0.00 0.00 76 1022.8
20260906155439 71 169 1.0 2.0 0.00 0.00 0.00 78 1022.8
20260906154936 71 222 2.0 2.0 0.00 0.00 0.00 77 1022.9
20260906154431 71 191 3.0 5.0 0.00 0.00 0.00 78 1022.9
20260906153929 69 147 4.0 7.0 0.00 0.00 0.00 79 1022.8
20260906153428 70 176 3.0 5.0 0.00 0.00 0.00 79 1022.8
20260906152923 71 198 4.0 6.0 0.00 0.00 0.00 79 1022.6
20260906152418 70 356 1.0 2.0 0.00 0.00 0.00 80 1022.9
20260906151917 69 203 3.0 3.0 0.00 0.00 0.00 81 1022.6
20260906151413 70 210 3.0 3.0 0.00 0.00 0.00 80 1022.7
20260906150909 70 175 0.0 1.0 0.00 0.00 0.00 79 1022.6
20260906150404 71 115 3.0 3.0 0.00 0.00 0.00 79 1022.8
20260906145903 71 247 3.0 3.0 0.00 0.00 0.00 78 1022.8
20260906145356 71 293 0.0 2.0 0.00 0.00 0.00 79 1022.7
20260906144851 70 309 0.0 0.0 0.00 0.00 0.00 81 1022.9
20260906144346 70 267 0.0 0.0 0.00 0.00 0.00 80 1022.9
20260906143841 69 35 0.0 0.0 0.00 0.00 0.00 83 1022.9
20260906143337 69 267 0.0 0.0 0.00 0.00 0.00 82 1022.9
20260906142832 67 315 1.0 1.0 0.00 0.00 0.00 85 1022.6
20260906142326 67 296 0.0 0.0 0.00 0.00 0.00 86 1022.9
20260906141821 66 289 0.0 0.0 0.00 0.00 0.00 86 1022.9
20260906141316 65 304 0.0 0.0 0.00 0.00 0.00 88 1023.0
20260906140814 65 297 0.0 0.0 0.00 0.00 0.00 89 1022.9
20260906140310 66 310 0.0 0.0 0.00 0.00 0.00 86 1023.0
20260906135807 65 261 1.0 1.0 0.00 0.00 0.00 88 1023.0
20260906135305 64 329 0.0 1.0 0.00 0.00 0.00 91 1023.0
20260906134757 63 299 0.0 0.0 0.00 0.00 0.00 92 1022.9
20260906134252 63 283 0.0 1.0 0.00 0.00 0.00 92 1023.0
20260906133748 63 277 0.0 1.0 0.00 0.00 0.00 93 1023.0
20260906133244 62 292 0.0 0.0 0.00 0.00 0.00 94 1023.2
20260906132739 61 316 0.0 0.0 0.00 0.00 0.00 94 1023.0
20260906132234 61 291 0.0 0.0 0.00 0.00 0.00 96 1023.0
20260906131729 60 313 0.0 0.0 0.00 0.00 0.00 97 1023.1
20260906131224 59 287 0.0 0.0 0.00 0.00 0.00 99 1023.0
20260906130720 59 316 0.0 0.0 0.00 0.00 0.00 99 1023.2
20260906130214 58 295 0.0 0.0 0.00 0.00 0.00 99 1022.9
20260906125713 58 302 1.0 1.0 0.00 0.00 0.00 99 1023.1
20260906125211 57 300 0.0 0.0 0.00 0.00 0.00 99 1023.2
20260906124707 57 305 0.0 0.0 0.00 0.00 0.00 99 1023.1
20260906124202 57 310 0.0 0.0 0.00 0.00 0.00 99 1022.9
20260906123700 56 313 0.0 0.0 0.00 0.00 0.00 99 1022.8
20260906123156 56 307 0.0 0.0 0.00 0.00 0.00 99 1022.6
20260906122655 55 308 0.0 0.0 0.00 0.00 0.00 99 1022.7
20260906122151 55 297 0.0 0.0 0.00 0.00 0.00 99 1022.8
20260906121647 55 306 0.0 1.0 0.00 0.00 0.00 99 1022.4
20260906121143 55 313 1.0 1.0 0.00 0.00 0.00 99 1022.4
20260906120639 55 311 1.0 1.0 0.00 0.00 0.00 99 1022.4
20260906120136 55 314 0.0 1.0 0.00 0.00 0.00 99 1022.3
20260906115636 55 307 1.0 1.0 0.00 0.00 0.00 99 1022.6
20260906115132 54 303 0.0 1.0 0.00 0.00 0.00 99 1022.6
20260906114631 54 301 0.0 0.0 0.00 0.00 0.00 99 1022.3
20260906114126 54 313 0.0 0.0 0.00 0.00 0.00 99 1022.5
20260906113626 54 302 0.0 0.0 0.00 0.00 0.00 99 1022.3
20260906113121 54 304 0.0 0.0 0.00 0.00 0.00 99 1022.1
20260906112620 54 309 0.0 0.0 0.00 0.00 0.00 99 1022.4
20260906112118 54 313 0.0 0.0 0.00 0.00 0.00 99 1022.2
20260906111616 54 308 0.0 0.0 0.00 0.00 0.00 99 1022.0
20260906111111 54 313 0.0 0.0 0.00 0.00 0.00 99 1022.0
20260906110606 54 293 0.0 1.0 0.00 0.00 0.00 99 1021.7
20260906110106 54 307 0.0 0.0 0.00 0.00 0.00 99 1022.0
20260906105600 54 307 0.0 0.0 0.00 0.00 0.00 99 1022.2
20260906105056 54 305 0.0 0.0 0.00 0.00 0.00 99 1021.9
20260906104555 54 307 0.0 0.0 0.00 0.00 0.00 99 1022.0
20260906104049 55 302 0.0 0.0 0.00 0.00 0.00 99 1022.0
20260906103547 55 309 1.0 1.0 0.00 0.00 0.00 99 1021.8
20260906103043 55 292 1.0 1.0 0.00 0.00 0.00 99 1021.9
20260906102537 55 309 1.0 1.0 0.00 0.00 0.00 99 1021.8
20260906102032 55 314 1.0 1.0 0.00 0.00 0.00 99 1021.7
20260906101527 55 323 0.0 0.0 0.00 0.00 0.00 99 1021.7
20260906101022 55 311 0.0 0.0 0.00 0.00 0.00 99 1021.7
20260906100518 55 319 0.0 0.0 0.00 0.00 0.00 99 1021.4
20260906100013 55 314 0.0 0.0 0.00 0.00 0.00 99 1021.6
20260906095507 55 309 0.0 0.0 0.00 0.00 0.00 99 1021.4
20260906095003 55 310 0.0 0.0 0.00 0.00 0.00 99 1021.6
20260906094501 55 311 0.0 0.0 0.00 0.00 0.00 99 1021.5
20260906093958 56 315 0.0 0.0 0.00 0.00 0.00 99 1021.9
20260906093453 56 296 0.0 0.0 0.00 0.00 0.00 99 1021.5
20260906092948 56 319 1.0 1.0 0.00 0.00 0.00 99 1021.6
20260906092448 56 310 0.0 0.0 0.00 0.00 0.00 99 1021.6
20260906091943 56 315 0.0 0.0 0.00 0.00 0.00 99 1021.6
20260906091438 56 323 0.0 1.0 0.00 0.00 0.00 99 1021.6
20260906090935 56 311 0.0 0.0 0.00 0.00 0.00 99 1021.6
20260906090430 56 311 0.0 0.0 0.00 0.00 0.00 98 1021.5
20260906085924 56 344 1.0 2.0 0.00 0.00 0.00 99 1021.6
20260906085423 56 290 2.0 2.0 0.00 0.00 0.00 99 1021.7
20260906084923 56 300 0.0 0.0 0.00 0.00 0.00 99 1021.8
20260906084418 56 313 1.0 1.0 0.00 0.00 0.00 99 1021.7
20260906083917 56 311 0.0 0.0 0.00 0.00 0.00 99 1021.5
20260906083412 56 302 0.0 0.0 0.00 0.00 0.00 99 1021.9
20260906082912 56 336 0.0 0.0 0.00 0.00 0.00 99 1022.0
20260906082407 56 318 1.0 1.0 0.00 0.00 0.00 99 1021.8
20260906081903 56 316 1.0 1.0 0.00 0.00 0.00 99 1021.8
20260906081358 56 314 0.0 1.0 0.00 0.00 0.00 99 1021.9
20260906080854 56 306 0.0 0.0 0.00 0.00 0.00 99 1021.7
20260906080351 56 306 1.0 1.0 0.00 0.00 0.00 99 1021.7
20260906075850 56 317 1.0 1.0 0.00 0.00 0.00 99 1021.7
20260906075350 56 313 0.0 0.0 0.00 0.00 0.00 99 1021.9
20260906074845 56 311 0.0 0.0 0.00 0.00 0.00 99 1021.8
20260906074340 56 323 0.0 0.0 0.00 0.00 0.00 99 1021.6
20260906073839 56 308 0.0 0.0 0.00 0.00 0.00 99 1021.9
20260906073334 56 309 1.0 1.0 0.00 0.00 0.00 99 1021.8
20260906072831 56 320 0.0 0.0 0.00 0.00 0.00 99 1021.8
20260906072326 56 311 0.0 0.0 0.00 0.00 0.00 99 1021.7
20260906071822 56 323 1.0 1.0 0.00 0.00 0.00 99 1022.0
20260906071321 56 312 0.0 0.0 0.00 0.00 0.00 99 1021.8
20260906070818 56 319 1.0 1.0 0.00 0.00 0.00 99 1022.1
20260906070314 56 321 0.0 0.0 0.00 0.00 0.00 99 1022.1
20260906065813 56 312 0.0 0.0 0.00 0.00 0.00 99 1022.2
20260906065309 56 304 0.0 0.0 0.00 0.00 0.00 99 1022.4
20260906064804 56 296 0.0 0.0 0.00 0.00 0.00 99 1022.3
20260906064300 56 304 0.0 0.0 0.00 0.00 0.00 99 1022.3
20260906063755 56 304 0.0 0.0 0.00 0.00 0.00 99 1022.3
20260906063251 56 313 0.0 0.0 0.00 0.00 0.00 99 1022.0
20260906062746 56 304 0.0 0.0 0.00 0.00 0.00 99 1022.1
20260906062245 56 311 0.0 0.0 0.00 0.00 0.00 99 1022.3
20260906061741 56 308 0.0 0.0 0.00 0.00 0.00 99 1022.4
20260906061237 56 309 0.0 0.0 0.00 0.00 0.00 99 1022.4
20260906060732 56 313 0.0 0.0 0.00 0.00 0.00 99 1022.1
20260906060229 56 311 0.0 0.0 0.00 0.00 0.00 99 1022.2
20260906055725 56 311 0.0 0.0 0.00 0.00 0.00 99 1022.1
20260906055220 57 307 0.0 0.0 0.00 0.00 0.00 99 1022.1
20260906054716 57 306 0.0 0.0 0.00 0.00 0.00 99 1022.2
20260906054215 57 305 0.0 0.0 0.00 0.00 0.00 99 1021.8
20260906053712 57 309 0.0 1.0 0.00 0.00 0.00 99 1021.9
20260906053207 57 304 0.0 0.0 0.00 0.00 0.00 99 1022.1
20260906052702 57 310 0.0 0.0 0.00 0.00 0.00 99 1022.2
20260906052159 58 307 0.0 0.0 0.00 0.00 0.00 99 1021.9
20260906051655 58 305 0.0 0.0 0.00 0.00 0.00 99 1022.2
20260906051154 58 319 0.0 1.0 0.00 0.00 0.00 99 1021.9
20260906050650 58 309 0.0 0.0 0.00 0.00 0.00 99 1022.0
20260906050145 58 304 0.0 0.0 0.00 0.00 0.00 99 1022.2
20260906045643 58 303 0.0 0.0 0.00 0.00 0.00 99 1021.9
20260906045139 58 323 0.0 0.0 0.00 0.00 0.00 99 1022.0
20260906044635 58 302 0.0 0.0 0.00 0.00 0.00 99 1021.9
20260906044130 58 306 0.0 0.0 0.00 0.00 0.00 99 1021.9
20260906043626 58 307 0.0 0.0 0.00 0.00 0.00 99 1021.8
20260906043122 58 307 0.0 0.0 0.00 0.00 0.00 99 1021.9
20260906042621 58 300 0.0 0.0 0.00 0.00 0.00 99 1022.0
20260906042116 58 307 0.0 0.0 0.00 0.00 0.00 99 1021.9
20260906041612 58 308 0.0 0.0 0.00 0.00 0.00 99 1021.7
20260906041111 58 308 0.0 0.0 0.00 0.00 0.00 99 1021.6
20260906040607 59 307 0.0 0.0 0.00 0.00 0.00 99 1021.7
20260906035557 59 304 0.0 0.0 0.00 0.00 0.00 98 1021.6
20260906035053 59 305 0.0 0.0 0.00 0.00 0.00 98 1021.5
20260906034548 59 306 0.0 0.0 0.00 0.00 0.00 98 1021.5
20260906034043 60 311 0.0 0.0 0.00 0.00 0.00 98 1021.8
20260906033538 60 300 0.0 0.0 0.00 0.00 0.00 97 1021.7
20260906033033 60 305 0.0 0.0 0.00 0.00 0.00 98 1021.4
20260906032530 60 309 0.0 0.0 0.00 0.00 0.00 97 1021.5
20260906032030 60 303 0.0 0.0 0.00 0.00 0.00 97 1021.2
20260906031526 60 301 0.0 0.0 0.00 0.00 0.00 97 1021.0
20260906031021 60 307 0.0 0.0 0.00 0.00 0.00 97 1021.2
20260906030520 60 304 0.0 0.0 0.00 0.00 0.00 96 1021.3
20260906030020 60 302 0.0 0.0 0.00 0.00 0.00 96 1021.3
20260906025519 60 300 0.0 0.0 0.00 0.00 0.00 95 1021.3
20260906025018 60 306 0.0 0.0 0.00 0.00 0.00 95 1021.5
20260906024513 60 309 0.0 0.0 0.00 0.00 0.00 96 1021.3
20260906024008 60 310 0.0 1.0 0.00 0.00 0.00 96 1021.3
20260906023504 60 305 1.0 1.0 0.00 0.00 0.00 96 1021.3
20260906022959 60 302 0.0 0.0 0.00 0.00 0.00 96 1021.4
20260906022454 60 295 1.0 1.0 0.00 0.00 0.00 96 1021.3
20260906021949 60 295 0.0 1.0 0.00 0.00 0.00 95 1021.2
20260906021444 60 301 0.0 0.0 0.00 0.00 0.00 95 1021.3
20260906020944 60 296 0.0 0.0 0.00 0.00 0.00 95 1021.2
20260906020438 60 297 0.0 0.0 0.00 0.00 0.00 97 1021.0
20260906015932 60 298 0.0 0.0 0.00 0.00 0.00 97 1020.6
20260906015427 60 315 0.0 0.0 0.00 0.00 0.00 98 1021.1
20260906014926 59 298 0.0 0.0 0.00 0.00 0.00 98 1021.2
20260906014426 59 308 1.0 1.0 0.00 0.00 0.00 97 1021.0
20260906013922 59 306 1.0 1.0 0.00 0.00 0.00 98 1021.0
20260906013417 60 306 1.0 1.0 0.00 0.00 0.00 97 1020.9
20260906012913 60 302 0.0 0.0 0.00 0.00 0.00 97 1021.0
20260906012408 60 300 0.0 1.0 0.00 0.00 0.00 97 1021.0
20260906011907 60 311 0.0 1.0 0.00 0.00 0.00 97 1020.8
20260906011402 60 304 1.0 1.0 0.00 0.00 0.00 96 1020.9
20260906010858 60 310 1.0 1.0 0.00 0.00 0.00 97 1020.9
20260906010353 60 314 1.0 1.0 0.00 0.00 0.00 97 1020.7
20260906005849 60 296 0.0 1.0 0.00 0.00 0.00 97 1020.7
20260906005348 61 303 1.0 1.0 0.00 0.00 0.00 97 1020.7
20260906004847 61 303 1.0 1.0 0.00 0.00 0.00 96 1020.8
20260906004347 61 305 1.0 1.0 0.00 0.00 0.00 96 1020.7
20260906003842 62 298 0.0 1.0 0.00 0.00 0.00 95 1020.8
20260906003338 62 305 1.0 1.0 0.00 0.00 0.00 94 1020.7
20260906002833 62 301 0.0 1.0 0.00 0.00 0.00 94 1020.6
20260906002332 63 300 0.0 0.0 0.00 0.00 0.00 93 1020.6
20260906001828 63 302 0.0 0.0 0.00 0.00 0.00 93 1020.6
20260906001324 64 298 0.0 0.0 0.00 0.00 0.00 91 1020.8
20260906000819 64 296 0.0 0.0 0.00 0.00 0.00 89 1020.6
20260906000314 65 305 0.0 1.0 0.00 0.00 0.00 88 1020.7
20260905235814 65 302 0.0 0.0 0.00 0.00 0.00 86 1020.8
20260905235313 66 304 0.0 0.0 0.00 0.00 0.00 86 1020.4
20260905234809 66 286 0.0 0.0 0.00 0.00 0.00 84 1020.8
20260905234304 66 295 0.0 0.0 0.00 0.00 0.00 85 1020.7
20260905233800 67 303 0.0 0.0 0.00 0.00 0.00 84 1020.9
20260905233259 67 299 0.0 0.0 0.00 0.00 0.00 84 1020.7
20260905232758 67 287 0.0 0.0 0.00 0.00 0.00 83 1020.6
20260905232255 68 302 0.0 0.0 0.00 0.00 0.00 84 1020.7
20260905231750 68 288 0.0 0.0 0.00 0.00 0.00 81 1020.8
20260905231246 68 297 0.0 0.0 0.00 0.00 0.00 81 1020.8
20260905230743 68 299 0.0 0.0 0.00 0.00 0.00 80 1020.9
20260905230240 68 298 0.0 0.0 0.00 0.00 0.00 79 1021.2
20260905225739 69 261 0.0 0.0 0.00 0.00 0.00 77 1021.4
20260905225234 69 217 1.0 2.0 0.00 0.00 0.00 77 1021.1
20260905224733 69 301 0.0 0.0 0.00 0.00 0.00 77 1020.9
20260905224229 69 286 3.0 3.0 0.00 0.00 0.00 76 1021.1
20260905223725 69 159 2.0 2.0 0.00 0.00 0.00 76 1021.2
20260905223222 70 289 2.0 2.0 0.00 0.00 0.00 75 1021.2
20260905222717 70 303 0.0 0.0 0.00 0.00 0.00 76 1021.1
20260905222216 70 288 0.0 0.0 0.00 0.00 0.00 75 1021.1
20260905221712 70 282 0.0 1.0 0.00 0.00 0.00 76 1021.2
20260905221209 70 267 1.0 2.0 0.00 0.00 0.00 74 1021.1
20260905220705 70 244 2.0 2.0 0.00 0.00 0.00 74 1021.2
20260905220200 70 202 1.0 2.0 0.00 0.00 0.00 73 1021.2
20260905215659 70 205 3.0 3.0 0.00 0.00 0.00 73 1021.1
20260905215155 70 292 0.0 0.0 0.00 0.00 0.00 77 1021.2
20260905214651 70 291 0.0 0.0 0.00 0.00 0.00 73 1021.6
20260905214147 70 312 0.0 0.0 0.00 0.00 0.00 75 1021.5
20260905213642 70 216 2.0 2.0 0.00 0.00 0.00 74 1021.6
20260905213138 71 145 3.0 3.0 0.00 0.00 0.00 73 1021.4
20260905212633 70 293 0.0 1.0 0.00 0.00 0.00 75 1021.3
20260905212132 70 260 2.0 3.0 0.00 0.00 0.00 74 1021.3
20260905211626 71 138 3.0 3.0 0.00 0.00 0.00 73 1021.4
20260905211122 71 174 0.0 1.0 0.00 0.00 0.00 73 1021.3
20260905210618 71 281 0.0 0.0 0.00 0.00 0.00 73 1021.3
20260905210113 71 153 2.0 2.0 0.00 0.00 0.00 73 1021.3
20260905205612 71 186 1.0 2.0 0.00 0.00 0.00 73 1021.2
20260905205112 72 314 0.0 1.0 0.00 0.00 0.00 72 1021.0
20260905204606 72 31 2.0 5.0 0.00 0.00 0.00 73 1021.0
20260905204102 72 280 1.0 2.0 0.00 0.00 0.00 73 1021.3
20260905203602 71 286 1.0 2.0 0.00 0.00 0.00 73 1021.1
20260905203057 71 234 2.0 3.0 0.00 0.00 0.00 73 1021.3
20260905202552 71 300 0.0 0.0 0.00 0.00 0.00 73 1021.7
20260905202048 72 99 2.0 2.0 0.00 0.00 0.00 71 1021.6
20260905201543 73 336 0.0 0.0 0.00 0.00 0.00 71 1021.4
20260905201043 72 280 0.0 0.0 0.00 0.00 0.00 71 1021.4
20260905200538 73 190 2.0 2.0 0.00 0.00 0.00 72 1021.8
20260905200038 72 295 0.0 0.0 0.00 0.00 0.00 72 1021.7
20260905195532 73 200 2.0 2.0 0.00 0.00 0.00 72 1021.8
20260905195027 73 274 0.0 0.0 0.00 0.00 0.00 69 1021.8
20260905194527 73 167 3.0 3.0 0.00 0.00 0.00 71 1021.8
20260905194021 72 224 1.0 3.0 0.00 0.00 0.00 71 1022.1
20260905193516 71 136 3.0 3.0 0.00 0.00 0.00 72 1021.9
20260905193011 71 236 2.0 2.0 0.00 0.00 0.00 72 1022.2
20260905192506 73 205 3.0 3.0 0.00 0.00 0.00 72 1022.0
20260905192002 73 284 0.0 0.0 0.00 0.00 0.00 69 1022.0
20260905191501 72 215 2.0 3.0 0.00 0.00 0.00 71 1022.0
20260905191000 72 156 5.0 7.0 0.00 0.00 0.00 69 1022.2
20260905190458 73 178 2.0 3.0 0.00 0.00 0.00 69 1021.8
20260905185957 72 269 1.0 1.0 0.00 0.00 0.00 71 1021.8
20260905185452 71 293 0.0 0.0 0.00 0.00 0.00 73 1022.1
20260905184950 70 137 2.0 2.0 0.00 0.00 0.00 71 1022.1
20260905184446 71 192 2.0 3.0 0.00 0.00 0.00 70 1021.8
20260905183944 71 170 3.0 5.0 0.00 0.00 0.00 71 1021.9
20260905183438 72 172 5.0 6.0 0.00 0.00 0.00 71 1022.0